Regional Weather Roundup
Issued by NWS

Home | Current Version | Previous Version | Text Only | Print | Product List | Glossary Off
Versions: 1 2 3 4 5 6 7 8 9 10 11 12 13 14 15 16 17 18 19 20 21 22 23 24 25 26 27 28 29 30 31 32 33 34 35 36 37 38 39 40 41 42 43 44 45 46 47 48 49 50

000
ASUS45 KBOU 110510
RWRCO

WEATHER ROUNDUP FOR COLORADO
NATIONAL WEATHER SERVICE DENVER/BOULDER CO
1100 PM MDT THU JUL 10 2014

NOTE: "FAIR" INDICATES FEW OR NO CLOUDS BELOW 12000 FEET WITH NO
SIGNIFICANT WEATHER AND/OR OBSTRUCTIONS TO VISIBILITY.

COZ001>005-013-030-031-110600-
...NORTHWEST COLORADO...

CITY           SKY/WX    TMP DP  RH WIND       PRES   REMARKS
CRAIG          PTCLDY    65  52  62 W5        30.17R
HAYDEN         CLOUDY    66  46  48 S3        30.19R
MEEKER         MOCLDY    67  56  67 SE8       30.18R
MOUNT WERNER   NOT AVBL
STEAMBOAT SPGS CLOUDY    67  48  51 E5        30.22R
WALDEN         CLOUDY    55  50  82 CALM      30.31F
$$

COZ006>008-011-110600-
...WEST CENTRAL VALLEYS...

CITY           SKY/WX    TMP DP  RH WIND       PRES   REMARKS
GRAND JUNCTION MOCLDY    80  50  34 NE7       30.01R
MONTROSE       TSTM      75  54  47 S26G35    30.13R
EAGLE          CLOUDY    63  59  88 CALM      30.29R
RIFLE          CLOUDY    69  55  60 E12       30.14R
DELTA          CLOUDY    78  55  43 NE9       30.07R
NUCLA          CLOUDY    73  46  38 E12       30.15R
$$

COZ017>023-064>068-110600-
...SOUTHWEST COLORADO...

CITY           SKY/WX    TMP DP  RH WIND       PRES   REMARKS
DURANGO        PTCLDY    65  53  65 N6        30.20R
CORTEZ         MOCLDY    76  50  40 W8        30.13R
PAGOSA SPRINGS CLOUDY    65  51  61 CALM      30.29S
TELLURIDE      NOT AVBL
WOLF CREEK PAS NOT AVBL
$$

COZ009-010-012-014-032>034-037-058>063-110600-
...CENTRAL COLORADO...

CITY           SKY/WX    TMP DP  RH WIND       PRES   REMARKS
ASPEN          CLOUDY    59  55  87 W3        30.31R
BUENA VISTA    MOCLDY    61  49  63 NW13      30.30R
COPPER MTN     CLOUDY    54  43  66 W5        30.64S
BERTHOUD PASS  LGT RAIN  46  32  57 NW8       30.68R
COTTONWOOD PAS MOCLDY    63  41  45 W6        30.45R
GUNNISON       MOCLDY    59  50  72 N7        30.32R
KREMMLING      CLOUDY    61  50  67 W6        30.30R
LEADVILLE      LGT RAIN  51  48  89 NW3       30.46R
SALIDA         MOCLDY    66  47  51 W3        30.34R
SUNLIGHT       TSTM      50  50 100 CALM      30.53R
WILKERSON PASS PTCLDY    54  36  50 SW6       30.58R
$$

COZ069>075-110600-
...SAN LUIS VALLEY/SANGRE DE CRISTO MOUNTAINS...

CITY           SKY/WX    TMP DP  RH WIND       PRES   REMARKS
ALAMOSA        MOCLDY    68  47  46 W6        30.24R
LA VETA PASS   PTCLDY    57  43  58 SW13G22   30.45S
SAGUACHE       NOT AVBL
$$

COZ035-036-038>040-110600-
...NORTHERN COLORADO FRONT RANGE...

CITY           SKY/WX    TMP DP  RH WIND       PRES   REMARKS
DENVER INTL AP CLOUDY    79  49  34 N10       30.05R
DMNS CITY PARK   N/A     76  53  44 N13G21    30.06R
AURORA         CLOUDY    78  50  36 W2        30.07R
FRONT RANGE AP NOT AVBL
ERIE MUNI ARPT CLOUDY    75  54  47 N15G25    30.06R
BOULDER MUN AP CLOUDY    75  54  46 N13       30.07R
CENTENNIAL     MOCLDY    76  46  34 S3        30.08R
BROOMFIELD     NOT AVBL
FORT COLLINS   CLOUDY    73  55  53 N18G25    30.08R
LONGMONT       CLOUDY    77  55  47 N17G24    30.06R
$$

COZ041-046-047-076>085-087-088-110600-
...PIKES PEAK/PALMER DIVIDE AND SOUTHERN FOOTHILLS...

CITY           SKY/WX    TMP DP  RH WIND       PRES   REMARKS
COLO. SPRINGS  PTCLDY    73  39  29 N5        30.11R
A. F. ACADEMY  PTCLDY    63  45  52 N10       30.14R
ELLICOTT       NOT AVBL
FALCON         CLEAR     64  38  39 N3        30.17R
FORT CARSON    CLEAR     76  40  27 NW8       30.06R
LIMON          PTCLDY    69  43  38 E5        30.03S
MONUMENT HILL  MOCLDY    66  36  32 W8        30.18R
TRINIDAD       CLEAR     79  48  33 SW18G28   30.08R
$$

COZ042>045-048>051-090-091-110600-
...NORTHEAST COLORADO...

CITY           SKY/WX    TMP DP  RH WIND       PRES   REMARKS
GREELEY ARPT   NOT AVBL
AKRON          CLEAR     75  64  68 SE12      29.97S
BURLINGTON     CLEAR     72  60  66 SE9       29.97R
WRAY             N/A     78  67  68 SE14G20   29.92F
STERLING       PTCLDY    79  61  53 N20G38    29.96R
HOLYOKE        PTCLDY    79  68  69 SE12      29.92F
FORT MORGAN    CLEAR     80  58  46 NE9G32    30.00R
$$

COZ086-089-092>099-110600-
...SOUTHEAST COLORADO...

CITY           SKY/WX    TMP DP  RH WIND       PRES   REMARKS
PUEBLO         CLEAR     80  42  25 E7        29.94R
LA JUNTA       CLEAR     87  52  29 S13       29.95R
LAMAR          CLEAR     85  48  27 S22       29.93R
SPRINGFIELD      N/A     77  46  33 S17       30.04R
$$



USA.gov is the U.S. government's official web portal to all federal, state and local government web resources and services.